Starlink 31455

operational
NORAD ID: 59309 Int'l Des: 2024-056 Owner: SPXS Country: US Constellation: starlink
LEOCIRCULAR

Über Starlink 31455

Beschreibung wird geladen...

Live-Position

3D-Globus wird geladen...

Nächste Überflüge

Höhenverlauf

Altitude vs Time

uPlot chart will show altitude changes over time

Zweizeiliger Elementsatz

1 59309U 24056P 25259.05853085 .00002999 00000-0 11847-3 0 9993
2 59309 43.0015 133.7423 0000955 273.8507 86.2236 15.27573510 84482
Epoch: 16. Sept. 2025 • Age: 18 hours

Aktueller Status

Höhe 493.5 km
Geschwindigkeit 7.62 km/s
Subsatellitenpunkt -37.40°S, 72.2°E
Startdatum 24. März 2024
Alter 1.4 years
Typ internet

Technische Details

Klassifizierung Payload
Masse 730.00 kg
Trockenmasse 700.00 kg
Gesamtmasse 730.00 kg
Länge 0.30 m
Durchmesser 4.10 m
Spannweite 29.00 m
Form Box + pan
Hersteller SPXS
Bus-Typ Starlink V2M
Phasenstatus In Orbit
Besitzer/Staat SPXS/US

Große Konstellationen

Loading constellations...